Track RADIO ROSTO now! 10-day predictions RADIO ROSTO is classified as:
1 23439U 94085A 23156.91560761 -.00000043 00000-0 -17026-4 0 9998 2 23439 64.8173 293.9153 0162642 212.1945 146.8967 11.27574293171055